Time,TemperatureF,DewpointF,PressureIn,WindDirection,WindDirectionDegrees,WindSpeedMPH,WindSpeedGustMPH,Humidity,HourlyPrecipIn,Conditions,Clouds,dailyrainin,SoftwareType,DateUTC
2016-02-13 00:03:00,47.0,23.0,-100.00,NNE,26,1.0,4.0,39,-99.99,,,-99.99,,2016-02-13 08:03:00,
2016-02-13 00:13:00,47.0,23.0,-100.00,NNE,26,1.0,4.0,39,-99.99,,,-99.99,,2016-02-13 08:13:00,
2016-02-13 00:36:00,47.0,22.0,-100.00,NNE,16,1.0,4.0,37,-99.99,,,-99.99,,2016-02-13 08:36:00,
2016-02-13 00:44:00,47.0,22.0,-100.00,NNE,16,1.0,4.0,37,-99.99,,,-99.99,,2016-02-13 08:44:00,
2016-02-13 00:54:00,47.0,22.0,-100.00,NNE,16,1.0,4.0,37,-99.99,,,-99.99,,2016-02-13 08:54:00,
2016-02-13 01:03:00,47.0,22.0,-100.00,NNE,16,1.0,4.0,37,-99.99,,,-99.99,,2016-02-13 09:03:00,
2016-02-13 01:13:00,47.0,22.0,-100.00,NNE,16,1.0,4.0,37,-99.99,,,-99.99,,2016-02-13 09:13:00,
2016-02-13 01:44:00,46.0,21.0,-100.00,NNE,15,1.0,4.0,37,-99.99,,,-99.99,,2016-02-13 09:44:00,
2016-02-13 02:03:00,46.0,21.0,-100.00,NNE,15,1.0,4.0,37,-99.99,,,-99.99,,2016-02-13 10:03:00,
2016-02-13 02:13:00,46.0,21.0,-100.00,NNE,15,1.0,4.0,37,-99.99,,,-99.99,,2016-02-13 10:13:00,
2016-02-13 02:36:00,46.0,21.0,-100.00,NNE,19,2.0,4.0,36,-99.99,,,-99.99,,2016-02-13 10:36:00,
2016-02-13 02:54:00,46.0,21.0,-100.00,NNE,19,2.0,4.0,36,-99.99,,,-99.99,,2016-02-13 10:54:00,
2016-02-13 03:04:00,46.0,21.0,-100.00,NNE,19,2.0,4.0,36,-99.99,,,-99.99,,2016-02-13 11:04:00,
2016-02-13 03:44:00,46.0,21.0,-100.00,NNE,29,1.0,5.0,36,-99.99,,,-99.99,,2016-02-13 11:44:00,
2016-02-13 04:04:00,46.0,21.0,-100.00,NNE,29,1.0,5.0,36,-99.99,,,-99.99,,2016-02-13 12:04:00,
2016-02-13 04:13:00,46.0,21.0,-100.00,NNE,29,1.0,5.0,36,-99.99,,,-99.99,,2016-02-13 12:13:00,
2016-02-13 04:47:00,45.0,21.0,-100.00,NNE,29,1.0,5.0,38,-99.99,,,-99.99,,2016-02-13 12:47:00,
2016-02-13 05:04:00,45.0,21.0,-100.00,NNE,29,1.0,5.0,38,-99.99,,,-99.99,,2016-02-13 13:04:00,
2016-02-13 05:13:00,45.0,21.0,-100.00,NNE,29,1.0,5.0,38,-99.99,,,-99.99,,2016-02-13 13:13:00,
2016-02-13 05:54:00,45.0,22.0,-100.00,NNE,24,2.0,4.0,39,-99.99,,,-99.99,,2016-02-13 13:54:00,
2016-02-13 06:03:00,45.0,22.0,-100.00,NNE,24,2.0,4.0,39,-99.99,,,-99.99,,2016-02-13 14:03:00,
2016-02-13 06:13:00,45.0,22.0,-100.00,NNE,24,2.0,4.0,39,-99.99,,,-99.99,,2016-02-13 14:13:00,
2016-02-13 06:44:00,44.0,17.0,-100.00,NE,35,1.0,4.0,34,-99.99,,,-99.99,,2016-02-13 14:44:00,
2016-02-13 06:54:00,44.0,17.0,-100.00,NE,35,1.0,4.0,34,-99.99,,,-99.99,,2016-02-13 14:54:00,
2016-02-13 07:03:00,44.0,17.0,-100.00,NE,35,1.0,4.0,34,-99.99,,,-99.99,,2016-02-13 15:03:00,
2016-02-13 07:13:00,44.0,17.0,-100.00,NE,35,1.0,4.0,34,-99.99,,,-99.99,,2016-02-13 15:13:00,
2016-02-13 07:44:00,44.0,11.0,-100.00,NNE,28,2.0,4.0,26,-99.99,,,-99.99,,2016-02-13 15:44:00,
2016-02-13 08:03:00,44.0,11.0,-100.00,NNE,28,2.0,4.0,26,-99.99,,,-99.99,,2016-02-13 16:03:00,
2016-02-13 08:13:00,44.0,11.0,-100.00,NNE,28,2.0,-999.0,26,-99.99,,,-99.99,,2016-02-13 16:13:00,
2016-02-13 09:05:00,50.0,13.0,-100.00,NE,34,1.0,6.0,22,-99.99,,,-99.99,,2016-02-13 17:05:00,
2016-02-13 09:12:00,50.0,13.0,-100.00,NE,34,1.0,6.0,22,-99.99,,,-99.99,,2016-02-13 17:12:00,
2016-02-13 10:04:00,57.0,17.0,-100.00,East,88,1.0,4.0,21,-99.99,,,-99.99,,2016-02-13 18:04:00,
2016-02-13 10:13:00,57.0,17.0,-100.00,East,88,1.0,4.0,21,-99.99,,,-99.99,,2016-02-13 18:13:00,
2016-02-13 11:14:00,63.0,19.0,-100.00,SE,137,2.0,6.0,18,-99.99,,,-99.99,,2016-02-13 19:14:00,
2016-02-13 11:54:00,67.0,16.0,-100.00,South,184,3.0,4.0,14,-99.99,,,-99.99,,2016-02-13 19:54:00,
2016-02-13 12:03:00,67.0,16.0,-100.00,South,184,3.0,4.0,14,-99.99,,,-99.99,,2016-02-13 20:03:00,
2016-02-13 12:13:00,67.0,16.0,-100.00,South,184,3.0,4.0,14,-99.99,,,-99.99,,2016-02-13 20:13:00,
2016-02-13 12:47:00,71.0,27.0,-100.00,SW,214,2.0,8.0,19,-99.99,,,-99.99,,2016-02-13 20:47:00,
2016-02-13 12:54:00,71.0,27.0,-100.00,SW,214,2.0,8.0,19,-99.99,,,-99.99,,2016-02-13 20:54:00,
2016-02-13 13:12:00,71.0,27.0,-100.00,SW,214,2.0,8.0,19,-99.99,,,-99.99,,2016-02-13 21:12:00,
2016-02-13 14:03:00,71.0,28.0,-100.00,SW,230,2.0,8.0,20,-99.99,,,-99.99,,2016-02-13 22:03:00,
2016-02-13 14:13:00,71.0,28.0,-100.00,SW,230,2.0,8.0,20,-99.99,,,-99.99,,2016-02-13 22:13:00,
2016-02-13 14:44:00,68.0,24.0,-100.00,SW,236,2.0,9.0,19,-99.99,,,-99.99,,2016-02-13 22:44:00,
2016-02-13 14:54:00,68.0,24.0,-100.00,SW,236,2.0,9.0,19,-99.99,,,-99.99,,2016-02-13 22:54:00,
2016-02-13 15:04:00,68.0,24.0,-100.00,SW,236,2.0,9.0,19,-99.99,,,-99.99,,2016-02-13 23:04:00,
2016-02-13 15:44:00,65.0,30.0,-100.00,SSW,195,1.0,7.0,27,-99.99,,,-99.99,,2016-02-13 23:44:00,
2016-02-13 15:56:00,65.0,30.0,-100.00,SSW,195,1.0,7.0,27,-99.99,,,-99.99,,2016-02-13 23:56:00,
2016-02-13 16:03:00,65.0,30.0,-100.00,SSW,195,1.0,7.0,27,-99.99,,,-99.99,,2016-02-14 00:03:00,
2016-02-13 16:13:00,65.0,30.0,-100.00,SSW,195,1.0,7.0,27,-99.99,,,-99.99,,2016-02-14 00:13:00,
2016-02-13 16:47:00,60.0,32.0,-100.00,SSE,158,2.0,8.0,34,-99.99,,,-99.99,,2016-02-14 00:47:00,
2016-02-13 16:54:00,60.0,32.0,-100.00,SSE,158,2.0,8.0,34,-99.99,,,-99.99,,2016-02-14 00:54:00,
2016-02-13 17:03:00,60.0,32.0,-100.00,SSE,158,2.0,8.0,34,-99.99,,,-99.99,,2016-02-14 01:03:00,
2016-02-13 17:13:00,60.0,32.0,-100.00,SSE,158,2.0,8.0,34,-99.99,,,-99.99,,2016-02-14 01:13:00,
2016-02-13 17:44:00,56.0,32.0,-100.00,WNW,303,1.0,5.0,40,-99.99,,,-99.99,,2016-02-14 01:44:00,
2016-02-13 17:54:00,56.0,32.0,-100.00,WNW,303,1.0,5.0,40,-99.99,,,-99.99,,2016-02-14 01:54:00,
2016-02-13 18:03:00,56.0,32.0,-100.00,WNW,303,1.0,5.0,40,-99.99,,,-99.99,,2016-02-14 02:03:00,
2016-02-13 18:13:00,56.0,32.0,-100.00,WNW,303,1.0,5.0,40,-99.99,,,-99.99,,2016-02-14 02:13:00,
2016-02-13 18:45:00,51.0,32.0,-100.00,East,85,1.0,5.0,48,-99.99,,,-99.99,,2016-02-14 02:45:00,
2016-02-13 18:54:00,51.0,32.0,-100.00,East,85,1.0,5.0,48,-99.99,,,-99.99,,2016-02-14 02:54:00,
2016-02-13 19:03:00,51.0,32.0,-100.00,East,85,1.0,5.0,48,-99.99,,,-99.99,,2016-02-14 03:03:00,
2016-02-13 19:13:00,51.0,32.0,-100.00,East,85,1.0,5.0,48,-99.99,,,-99.99,,2016-02-14 03:13:00,
2016-02-13 19:47:00,50.0,32.0,-100.00,North,9,2.0,3.0,49,-99.99,,,-99.99,,2016-02-14 03:47:00,
2016-02-13 20:13:00,50.0,32.0,-100.00,North,9,2.0,-999.0,49,-99.99,,,-99.99,,2016-02-14 04:13:00,